Home > Weather > Durban > Past weeks

Flag for South Africa Past Weather in Durban, South Africa — Yesterday and Last 2 Weeks

Now
61 °F

Sunny.


Feels Like: 61 °F
Forecast: 53 / 76 °F
Wind: 3 mph from Southwest

Location: King Shaka International Airport

Current Time: Jun 26, 2016 at 10:13:50 AM

Latest Report: Jun 26, 2016 at 9:00 AM


Visibility: 10 mi

Pressure: 30.27 "Hg

Humidity: 63%

Dew Point: 48 °F

Location of DurbanLocation

Past Weather in Durban — Graph

°F

Durban Temperature Yesterday

Maximum temperature yesterday: 73 °F (at 1:00 PM)
Minimum temperature yesterday: 46 °F (at 5:00 AM)
Average temperature yesterday: 58 °F

High & Low Weather Summary for the Past Weeks

 TemperatureHumidityPressure
High84 °F (Jun 19, 12:00 PM)94% (Jun 12, 1:00 AM)30.63 "Hg (Jun 12, 1:00 AM)
Low43 °F (Jun 26, 7:00 AM)35% (Jun 11, 1:00 PM)29.86 "Hg (Jun 20, 3:00 AM)
Average62 °F66%30.22 "Hg
* Reported Jun 11 9:00 AM — Jun 26 9:00 AM, Durban, Weather by CustomWeather, © 2016

Note: Actual official high and low records may vary slightly from our data, if they occured in-between our weather recording intervals... More about our weather records

Advertising

Durban Weather History for the Previous 24 Hours

Scroll right to see more
 ConditionsComfort  
Time TempWeatherWind HumidityBarometerVisibility
9:00 AM
Sun, Jun 26
61 °FSunny.3 mph63%30.27 "Hg10 mi
8:00 AM54 °FSunny.6 mph77%30.24 "Hg10 mi
7:00 AM43 °FSunny.1 mph81%30.24 "Hg10 mi
6:00 AM46 °FPassing clouds.3 mph82%30.24 "HgN/A
5:00 AM46 °FClear.2 mph82%30.21 "Hg10 mi
4:00 AM48 °FClear.2 mph82%30.21 "Hg10 mi
3:00 AM46 °FClear.No wind87%30.21 "Hg10 mi
2:00 AM48 °FClear.5 mph82%30.21 "Hg10 mi
1:00 AM50 °FClear.1 mph82%30.21 "Hg10 mi
12:00 AM48 °FClear.3 mph87%30.21 "Hg10 mi
11:00 PM
Sat, Jun 25
48 °FClear.2 mph82%30.21 "Hg10 mi
10:00 PM50 °FClear.2 mph82%30.21 "Hg10 mi
9:00 PM50 °FClear.2 mph82%30.21 "Hg10 mi
8:00 PM52 °FClear.1 mph77%30.21 "Hg10 mi
7:00 PM63 °FClear.2 mph73%30.21 "Hg10 mi
6:00 PM63 °FClear.6 mph73%30.18 "Hg10 mi
5:00 PM68 °FClear.7 mph60%30.18 "Hg10 mi
4:00 PM72 °FSunny.7 mph53%30.18 "Hg10 mi
3:00 PM73 °FSunny.9 mph50%30.18 "Hg10 mi
2:00 PM73 °FPassing clouds.8 mph53%30.15 "HgN/A
1:00 PM73 °FPassing clouds.8 mph50%30.18 "HgN/A
12:00 PM72 °FPassing clouds.6 mph44%30.21 "HgN/A
11:00 AM72 °FSunny.2 mph41%30.24 "Hg10 mi
10:00 AM64 °FSunny.2 mph56%30.24 "Hg10 mi
Weather by CustomWeather, © 2016

See weather overviewHow to use our weather pages